Location: *
(51.8167°N, 12.5000°E)
Time: 02:05:55
(UTC+00:00)

Cosmos 1544 - Pass Details

Date: 16 September 2019
Orbit: 475 x 491 km, 82.5° (Epoch: 20 October)

Event Time Altitude Azimuth Distance (km) Brightness Sun altitude
Rises 18:30:11 0° 181° (S) 2,516 6.5 -10.9°
Reaches altitude 10° 18:32:16 10° 178° (S) 1,643 5.5 -11.2°
Maximum altitude 18:35:49 62° 97° (E) 544 3.0 -11.8°
Drops below altitude 10° 18:39:24 10° 17° (NNE) 1,663 5.8 -12.3°
Sets 18:41:31 0° 14° (NNE) 2,549 6.8 -12.6°
